GW5982 Weather Reports


time (UTC)temp
C
wind
direction
speed
KPH
gust
KPH
rain 1hr
cm
rain 24hr
cm
rain mn
cm
humidity
%
barometer
mb
20260507174533 11 294 11.3 16.1 0.00 0.25 0.25 86 1000.8
20260507174010 11 220 4.8 17.7 0.00 0.25 0.25 88 1000.4
20260507173508 10 241 11.3 17.7 0.00 0.25 0.25 88 1000.8
20260507173034 10 248 11.3 16.1 0.00 0.25 0.25 89 1001.0
20260507172509 10 307 1.6 14.5 0.00 0.25 0.25 90 1000.6
20260507172014 10 258 8.0 19.3 0.00 0.25 0.25 90 1001.0
20260507171528 10 252 9.7 19.3 0.00 0.25 0.25 90 1001.3
20260507171012 10 267 12.9 19.3 0.00 0.25 0.25 90 1001.1
20260507170507 10 259 12.9 19.3 0.00 0.25 0.25 91 1001.2
20260507170021 10 237 9.7 16.1 0.00 0.25 0.25 92 1001.0
20260507165506 10 242 8.0 12.9 0.00 0.25 0.25 92 1000.9
20260507165010 10 270 6.4 16.1 0.00 0.25 0.25 92 1000.9
20260507164522 10 259 8.0 16.1 0.00 0.25 0.25 92 1000.8
20260507164011 10 253 9.7 14.5 0.00 0.25 0.25 92 1001.0
20260507163508 10 288 9.7 17.7 0.00 0.25 0.25 92 1000.8
20260507163024 10 245 12.9 17.7 0.00 0.25 0.25 92 1001.3
20260507162510 10 277 9.7 19.3 0.00 0.25 0.25 92 1001.2
20260507162010 10 281 8.0 24.1 0.00 0.25 0.25 92 1001.2
20260507161532 10 273 9.7 25.7 0.00 0.25 0.25 92 1001.2
20260507161008 10 281 14.5 25.7 0.00 0.25 0.25 92 1001.4
20260507160510 10 18 8.0 14.5 0.00 0.25 0.25 92 1001.3
20260507160029 10 264 6.4 11.3 0.00 0.25 0.25 92 1001.2
20260507155513 10 171 4.8 14.5 0.00 0.25 0.25 92 1000.9
20260507155011 10 284 6.4 16.1 0.00 0.25 0.25 92 1001.7
20260507154529 10 243 9.7 16.1 0.00 0.25 0.25 92 1001.8
20260507154010 10 226 6.4 12.9 0.00 0.25 0.25 92 1001.7
20260507153507 10 305 6.4 19.3 0.00 0.25 0.25 92 1001.8
20260507153037 10 257 9.7 19.3 0.00 0.25 0.25 92 1002.0
20260507152508 10 240 6.4 11.3 0.03 0.25 0.25 92 1001.9
20260507152009 10 233 6.4 11.3 0.03 0.25 0.25 92 1001.7
20260507151526 10 229 4.8 14.5 0.05 0.25 0.25 92 1001.2
20260507151008 10 191 8.0 14.5 0.08 0.25 0.25 92 1001.5
20260507150509 10 200 8.0 14.5 0.08 0.25 0.25 92 1001.8
20260507150030 11 219 8.0 16.1 0.08 0.25 0.25 92 1002.0
20260507145508 11 234 6.4 16.1 0.08 0.25 0.25 92 1002.5
20260507145011 11 226 6.4 16.1 0.08 0.23 0.23 92 1002.4
20260507144526 11 214 8.0 17.7 0.08 0.23 0.23 92 1002.2
20260507144012 11 212 6.4 17.7 0.08 0.23 0.23 92 1001.9
20260507143510 11 221 8.0 24.1 0.08 0.23 0.23 91 1001.9
20260507143027 11 243 11.3 24.1 0.08 0.23 0.23 91 1002.3
20260507142506 11 185 8.0 22.5 0.05 0.20 0.20 91 1002.6
20260507142009 11 280 9.7 20.9 0.05 0.20 0.20 91 1002.3
20260507141523 11 266 11.3 19.3 0.03 0.18 0.18 91 1002.0
20260507141008 11 191 9.7 20.9 0.00 0.18 0.18 91 1001.7
20260507140507 11 232 11.3 20.9 0.00 0.18 0.18 91 1001.7
20260507140025 11 211 6.4 17.7 0.00 0.18 0.18 90 1001.7
20260507135508 11 236 8.0 20.9 0.00 0.15 0.15 90 1002.0
20260507135011 11 211 11.3 22.5 0.00 0.15 0.15 89 1001.8
20260507134526 11 245 16.1 22.5 0.00 0.15 0.15 89 1002.4
20260507134008 11 274 12.9 22.5 0.00 0.15 0.15 89 1002.4
20260507133513 11 220 12.9 27.4 0.00 0.15 0.15 88 1002.1
20260507133014 11 242 16.1 27.4 0.00 0.15 0.15 88 1002.2
20260507132505 12 246 16.1 27.4 0.00 0.15 0.15 87 1002.1
20260507132007 12 204 12.9 32.2 0.00 0.15 0.15 87 1001.8
20260507131508 12 184 16.1 32.2 0.00 0.15 0.15 87 1002.1
20260507131004 12 221 19.3 32.2 0.00 0.15 0.15 87 1002.1
20260507130505 12 257 17.7 33.8 0.00 0.15 0.15 87 1002.4
20260507130012 12 242 16.1 33.8 0.00 0.15 0.15 88 1002.5
20260507125505 12 252 12.9 24.1 0.00 0.15 0.15 89 1002.6
20260507125008 12 264 9.7 22.5 0.00 0.15 0.15 89 1002.4
20260507124511 12 215 11.3 24.1 0.00 0.15 0.15 89 1002.1
20260507124006 12 181 12.9 24.1 0.00 0.15 0.15 89 1002.1
20260507123504 12 197 14.5 24.1 0.00 0.15 0.15 89 1002.1
20260507123015 12 251 14.5 25.7 0.00 0.15 0.15 89 1001.8
20260507122504 12 251 16.1 25.7 0.00 0.15 0.15 89 1001.8
20260507122009 12 192 14.5 29.0 0.00 0.15 0.15 89 1002.2
20260507121518 12 217 19.3 32.2 0.00 0.15 0.15 89 1001.9
20260507121008 12 193 17.7 32.2 0.00 0.15 0.15 89 1001.8
20260507120511 12 211 12.9 32.2 0.00 0.15 0.15 89 1001.9
20260507120021 12 206 19.3 32.2 0.00 0.15 0.15 89 1002.0
20260507115504 12 192 17.7 32.2 0.00 0.15 0.15 89 1002.2
20260507115003 12 184 14.5 35.4 0.03 0.15 0.15 89 1001.9
20260507114508 12 185 19.3 40.2 0.03 0.15 0.15 89 1002.0
20260507114009 12 224 20.9 40.2 0.03 0.15 0.15 89 1002.0
20260507113504 12 218 19.3 33.8 0.03 0.15 0.15 89 1001.7
20260507113009 12 214 20.9 38.6 0.03 0.15 0.15 89 1001.4
20260507112505 12 200 17.7 38.6 0.03 0.15 0.15 90 1000.9
20260507112005 12 142 12.9 27.4 0.03 0.15 0.15 90 1000.7
20260507111516 12 219 17.7 25.7 0.03 0.15 0.15 91 1000.9
20260507111006 12 164 14.5 25.7 0.03 0.15 0.15 91 1001.3
20260507110505 12 165 9.7 29.0 0.00 0.13 0.13 91 1001.5
20260507110023 12 209 16.1 29.0 0.00 0.13 0.13 91 1001.5
20260507105508 12 162 14.5 22.5 0.03 0.13 0.13 91 1001.6
20260507105006 12 210 14.5 25.7 0.00 0.10 0.10 91 1002.1
20260507104521 12 231 16.1 25.7 0.00 0.10 0.10 90 1001.9
20260507104010 12 203 11.3 29.0 0.00 0.10 0.10 90 1002.0
20260507103503 12 253 16.1 29.0 0.00 0.10 0.10 90 1002.0
20260507103010 12 205 16.1 35.4 0.00 0.10 0.10 90 1002.0
20260507102504 12 246 17.7 35.4 0.00 0.10 0.10 91 1001.9
20260507102006 12 207 19.3 38.6 0.00 0.10 0.10 91 1001.9
20260507101510 12 188 25.7 40.2 0.00 0.10 0.10 91 1001.8
20260507101005 12 235 19.3 40.2 0.00 0.10 0.10 91 1001.9
20260507100506 12 190 22.5 37.0 0.00 0.10 0.10 91 1001.7
20260507100024 13 195 20.9 41.8 0.00 0.10 0.10 91 1001.8
20260507095508 13 198 20.9 49.9 0.00 0.08 0.08 91 1001.6
20260507095008 13 214 22.5 49.9 0.00 0.08 0.08 90 1001.2
20260507094526 13 165 20.9 46.7 0.00 0.08 0.08 90 1001.3
20260507094007 13 229 22.5 46.7 0.00 0.08 0.08 90 1001.1
20260507093507 13 264 29.0 46.7 0.00 0.08 0.08 90 1000.9
20260507093022 13 247 19.3 45.1 0.00 0.08 0.08 90 1000.7
20260507092513 13 172 25.7 51.5 0.00 0.08 0.08 90 1000.7
20260507092007 12 163 25.7 51.5 0.00 0.08 0.08 90 1000.9
20260507091507 12 150 22.5 46.7 0.00 0.08 0.08 90 1001.0
20260507091004 12 128 17.7 45.1 0.00 0.08 0.08 90 1001.0
20260507090503 12 160 24.1 45.1 0.00 0.08 0.08 90 1001.0
20260507090013 12 169 29.0 45.1 0.00 0.08 0.08 90 1000.9
20260507085507 12 141 22.5 40.2 0.00 0.08 0.08 90 1001.0
20260507085006 12 228 25.7 40.2 0.00 0.08 0.08 90 1001.1
20260507084519 12 167 22.5 45.1 0.00 0.08 0.08 90 1001.1
20260507084009 12 206 20.9 49.9 0.00 0.08 0.08 90 1001.1
20260507083508 12 167 27.4 49.9 0.00 0.08 0.08 90 1001.1
20260507083022 12 128 25.7 41.8 0.00 0.08 0.08 89 1001.1
20260507082505 12 167 20.9 43.5 0.00 0.08 0.08 89 1001.4
20260507082010 12 183 25.7 43.5 0.00 0.08 0.08 89 1001.6
20260507081523 12 190 20.9 45.1 0.00 0.08 0.08 89 1001.8
20260507081008 12 150 24.1 49.9 0.00 0.08 0.08 88 1001.9
20260507080509 13 138 22.5 54.7 0.00 0.08 0.08 88 1002.1
20260507080034 13 172 22.5 54.7 0.00 0.08 0.08 88 1002.3
20260507075503 13 87 22.5 53.1 0.00 0.08 0.08 88 1002.4
20260507075004 13 141 25.7 48.3 0.00 0.08 0.08 88 1002.3
20260507074514 13 245 25.7 57.9 0.00 0.08 0.08 88 1002.4
20260507074009 13 129 25.7 57.9 0.00 0.08 0.08 88 1002.3
20260507073507 13 107 25.7 56.3 0.00 0.08 0.08 87 1002.8
20260507073020 13 157 29.0 64.4 0.00 0.08 0.08 87 1002.8
20260507072508 13 146 22.5 64.4 0.00 0.08 0.08 86 1002.8
20260507072008 13 186 24.1 51.5 0.00 0.05 0.05 86 1003.0
20260507071555 13 155 20.9 51.5 0.00 0.05 0.05 87 1002.9
20260507071008 13 150 20.9 40.2 0.00 0.05 0.05 87 1003.2
20260507070514 13 162 19.3 48.3 0.00 0.05 0.05 87 1003.4
20260507070026 13 191 22.5 48.3 0.00 0.05 0.05 87 1003.5
20260507065508 13 148 24.1 45.1 0.00 0.05 0.05 87 1003.3
20260507065010 13 162 19.3 35.4 0.00 0.05 0.05 87 1003.5
20260507064527 13 206 20.9 37.0 0.00 0.05 0.05 87 1003.8
20260507064008 13 182 17.7 37.0 0.03 0.05 0.05 87 1003.8
20260507063504 13 161 16.1 41.8 0.03 0.05 0.05 86 1004.0
20260507063015 13 207 19.3 41.8 0.03 0.05 0.05 86 1004.2
20260507062509 13 200 25.7 38.6 0.03 0.05 0.05 86 1004.3
20260507062005 13 158 14.5 41.8 0.03 0.05 0.05 86 1004.4
20260507061519 13 148 17.7 41.8 0.03 0.05 0.05 86 1004.5
20260507061007 13 125 17.7 38.6 0.05 0.05 0.05 86 1004.7
20260507060507 13 147 19.3 41.8 0.05 0.05 0.05 86 1004.8
20260507060024 13 169 16.1 41.8 0.05 0.05 0.05 86 1005.0
20260507055509 13 152 24.1 41.8 0.05 0.05 0.05 85 1005.3
20260507055015 13 148 19.3 41.8 0.03 0.03 0.03 84 1005.6
20260507054523 14 141 24.1 43.5 0.03 0.03 0.03 83 1005.6
20260507054012 14 190 25.7 43.5 0.00 0.00 0.00 83 1005.6
20260507053509 14 171 20.9 40.2 0.00 0.00 0.00 83 1005.8
20260507053039 14 163 24.1 40.2 0.00 0.00 0.00 82 1006.1
20260507052510 14 162 17.7 37.0 0.00 0.00 0.00 82 1006.3
20260507052007 14 179 17.7 32.2 0.00 0.00 0.00 82 1006.4
20260507051527 14 165 16.1 40.2 0.00 0.00 0.00 81 1006.6
20260507051003 14 143 19.3 40.2 0.00 0.00 0.00 81 1006.7
20260507050510 14 146 16.1 40.2 0.00 0.00 0.00 81 1006.8
20260507050031 14 176 22.5 40.2 0.00 0.00 0.00 81 1007.0
20260507045510 15 162 11.3 38.6 0.00 0.00 0.00 81 1007.2
20260507045010 15 168 22.5 38.6 0.00 0.00 0.00 80 1006.9
20260507044524 15 143 19.3 35.4 0.00 0.00 0.00 80 1007.0
20260507044009 15 148 16.1 41.8 0.00 0.00 0.00 80 1006.8
20260507043507 15 203 19.3 41.8 0.00 0.00 0.00 80 1006.8
20260507043011 15 183 24.1 41.8 0.00 0.00 0.00 79 1007.0
20260507042503 15 162 27.4 41.8 0.00 0.00 0.00 79 1007.3
20260507042002 15 146 16.1 43.5 0.00 0.00 0.00 79 1007.4
20260507041513 15 144 22.5 43.5 0.00 0.00 0.00 79 1007.5
20260507041004 15 223 17.7 37.0 0.00 0.00 0.00 78 1007.5
20260507040512 15 169 12.9 35.4 0.00 0.00 0.00 78 1007.9
20260507040018 15 161 16.1 43.5 0.00 0.00 0.00 78 1008.0
20260507035505 15 198 24.1 43.5 0.00 0.00 0.00 77 1008.0
20260507035008 15 199 19.3 37.0 0.00 0.00 0.00 77 1008.4
20260507034533 15 140 22.5 37.0 0.00 0.00 0.00 77 1008.2
20260507034004 15 157 14.5 32.2 0.00 0.00 0.00 78 1008.2
20260507033503 15 205 17.7 30.6 0.00 0.00 0.00 78 1008.2
20260507033013 15 150 17.7 27.4 0.00 0.00 0.00 78 1008.3
20260507032506 15 204 14.5 27.4 0.00 0.00 0.00 78 1008.4
20260507032007 15 207 12.9 32.2 0.00 0.00 0.00 78 1008.2
20260507031510 15 176 14.5 33.8 0.00 0.00 0.00 78 1008.2
20260507031004 15 159 20.9 33.8 0.00 0.00 0.00 79 1008.3
20260507030506 15 174 14.5 25.7 0.00 0.00 0.00 80 1008.6
20260507030015 15 195 16.1 33.8 0.00 0.00 0.00 80 1008.7
20260507025506 15 171 20.9 33.8 0.00 0.00 0.00 79 1008.7
20260507025005 15 133 17.7 29.0 0.00 0.00 0.00 78 1008.4
20260507024519 15 152 12.9 20.9 0.00 0.00 0.00 78 1008.7
20260507024006 15 167 9.7 20.9 0.00 0.00 0.00 77 1009.2
20260507023511 15 143 12.9 24.1 0.00 0.00 0.00 77 1009.2
20260507023027 15 176 11.3 24.1 0.00 0.00 0.00 77 1009.3
20260507022507 15 155 9.7 17.7 0.00 0.00 0.00 77 1009.8
20260507022006 15 164 9.7 22.5 0.00 0.00 0.00 77 1009.8
20260507021505 15 160 11.3 22.5 0.00 0.00 0.00 76 1010.2
20260507021004 15 172 11.3 22.5 0.00 0.00 0.00 76 1010.3
20260507020505 15 199 9.7 20.9 0.00 0.00 0.00 75 1010.4
20260507020015 15 136 8.0 20.9 0.00 0.00 0.00 75 1010.4
20260507015504 15 203 6.4 19.3 0.00 0.00 0.00 75 1010.4
20260507015008 15 193 11.3 19.3 0.00 0.00 0.00 75 1010.7
20260507014517 15 214 11.3 19.3 0.00 0.00 0.00 74 1010.7
20260507014006 15 169 9.7 25.7 0.00 0.00 0.00 74 1010.7
20260507013508 15 203 12.9 25.7 0.00 0.00 0.00 74 1010.8
20260507013021 15 179 14.5 25.7 0.00 0.00 0.00 74 1010.4
20260507012509 16 199 11.3 25.7 0.00 0.00 0.00 73 1010.6
20260507012008 16 157 14.5 25.7 0.00 0.00 0.00 73 1010.9
20260507011523 16 176 14.5 25.7 0.00 0.00 0.00 72 1010.8
20260507011007 16 249 16.1 25.7 0.00 0.00 0.00 72 1011.2
20260507010511 16 216 16.1 24.1 0.00 0.00 0.00 72 1011.1
20260507010007 16 207 12.9 27.4 0.00 0.00 0.00 72 1010.9
20260507005505 16 224 14.5 29.0 0.00 0.00 0.00 71 1010.8
20260507005005 16 147 16.1 30.6 0.00 0.00 0.00 71 1011.0
20260507004514 16 158 17.7 32.2 0.00 0.00 0.00 70 1010.9
20260507004005 16 189 14.5 32.2 0.00 0.00 0.00 70 1011.0
20260507003504 16 165 16.1 32.2 0.00 0.00 0.00 70 1010.9
20260507003017 16 191 19.3 32.2 0.00 0.00 0.00 69 1010.8
20260507002509 17 243 16.1 32.2 0.00 0.00 0.00 69 1010.9
20260507002010 17 229 20.9 35.4 0.00 0.00 0.00 69 1011.1
20260507001521 17 233 20.9 35.4 0.00 0.00 0.00 68 1010.9
20260507001008 17 253 20.9 30.6 0.00 0.00 0.00 69 1010.9
20260507000509 17 191 17.7 30.6 0.00 0.00 0.00 69 1010.6
20260507000024 17 167 17.7 43.5 0.00 0.00 0.00 68 1010.7
20260506235511 17 158 24.1 43.5 0.00 0.00 0.00 68 1010.6
20260506235008 17 170 22.5 41.8 0.00 0.00 0.00 68 1010.6
20260506234510 17 148 17.7 46.7 0.00 0.00 0.00 69 1010.5
20260506234006 17 150 20.9 46.7 0.00 0.00 0.00 69 1010.5
20260506233506 17 219 20.9 43.5 0.00 0.00 0.00 69 1010.2
20260506233014 17 220 20.9 45.1 0.00 0.00 0.00 69 1010.4
20260506232506 17 200 24.1 45.1 0.00 0.00 0.00 68 1010.3
20260506232004 17 230 24.1 46.7 0.00 0.00 0.00 68 1010.6
20260506231519 17 233 29.0 53.1 0.00 0.00 0.00 68 1010.4
20260506231008 17 165 30.6 56.3 0.00 0.00 0.00 68 1010.4
20260506230509 17 203 29.0 56.3 0.00 0.00 0.00 68 1010.3
20260506230024 17 222 29.0 53.1 0.00 0.00 0.00 67 1010.1
20260506225508 17 206 20.9 41.8 0.00 0.00 0.00 67 1010.2
20260506225008 18 177 27.4 56.3 0.00 0.00 0.00 67 1010.3
20260506224526 18 247 25.7 56.3 0.00 0.00 0.00 67 1010.2
20260506224011 18 238 24.1 51.5 0.00 0.00 0.00 67 1010.1
20260506223513 18 262 32.2 56.3 0.00 0.00 0.00 66 1010.1
20260506223026 18 206 35.4 56.3 0.00 0.00 0.00 66 1010.1
20260506222505 18 198 35.4 54.7 0.00 0.00 0.00 66 1010.2
20260506222011 18 266 30.6 57.9 0.00 0.00 0.00 66 1010.2
20260506221516 18 252 33.8 57.9 0.00 0.00 0.00 65 1010.4
20260506221010 18 245 25.7 46.7 0.00 0.00 0.00 65 1010.4
20260506220507 18 259 24.1 59.5 0.00 0.00 0.00 65 1010.3
20260506220031 18 198 27.4 59.5 0.00 0.00 0.00 64 1010.4
20260506215507 18 217 35.4 61.2 0.00 0.00 0.00 64 1010.3
20260506215007 19 188 30.6 61.2 0.00 0.00 0.00 64 1010.4
20260506214526 19 214 29.0 56.3 0.00 0.00 0.00 63 1010.6
20260506214009 19 248 29.0 62.8 0.00 0.00 0.00 62 1010.4
20260506213509 19 195 29.0 62.8 0.00 0.00 0.00 62 1010.4
20260506213030 19 226 27.4 67.6 0.00 0.00 0.00 62 1010.4
20260506212507 19 181 38.6 67.6 0.00 0.00 0.00 62 1010.3
20260506212009 19 143 22.5 67.6 0.00 0.00 0.00 62 1010.5
20260506211529 19 201 30.6 59.5 0.00 0.00 0.00 63 1010.6
20260506211011 19 244 27.4 59.5 0.00 0.00 0.00 63 1010.4
20260506210504 19 187 27.4 57.9 0.00 0.00 0.00 63 1010.3
20260506210016 19 210 32.2 57.9 0.00 0.00 0.00 63 1010.5
20260506205510 19 222 33.8 54.7 0.00 0.00 0.00 63 1010.3
20260506205007 20 212 25.7 57.9 0.00 0.00 0.00 63 1010.6
20260506204521 20 190 32.2 57.9 0.00 0.00 0.00 63 1010.3
20260506204007 20 262 32.2 51.5 0.00 0.00 0.00 62 1010.2
20260506203512 20 240 25.7 62.8 0.00 0.00 0.00 63 1010.2
20260506203028 20 195 24.1 62.8 0.00 0.00 0.00 62 1010.1
20260506202508 20 212 29.0 57.9 0.00 0.00 0.00 62 1010.1
20260506202012 20 252 33.8 57.9 0.00 0.00 0.00 62 1009.9
20260506201528 20 217 33.8 67.6 0.00 0.00 0.00 63 1010.0
20260506201010 20 215 43.5 67.6 0.00 0.00 0.00 63 1009.9
20260506200510 20 176 41.8 59.5 0.00 0.00 0.00 62 1009.7
20260506200028 20 212 30.6 62.8 0.00 0.00 0.00 63 1009.8
20260506195509 20 158 29.0 62.8 0.00 0.00 0.00 64 1009.8
20260506195011 20 224 25.7 62.8 0.00 0.00 0.00 64 1009.9
20260506194518 20 170 33.8 62.8 0.00 0.00 0.00 63 1009.7
20260506194005 20 215 27.4 64.4 0.00 0.00 0.00 63 1009.9
20260506193509 20 226 41.8 64.4 0.00 0.00 0.00 64 1009.7
20260506193005 20 212 33.8 59.5 0.00 0.00 0.00 65 1009.9
20260506192503 20 234 25.7 59.5 0.00 0.00 0.00 66 1010.1
20260506192003 20 226 33.8 57.9 0.00 0.00 0.00 65 1010.0
20260506191507 19 153 35.4 57.9 0.00 0.00 0.00 65 1010.1
20260506191003 19 186 30.6 48.3 0.00 0.00 0.00 67 1010.4
20260506190503 19 216 32.2 45.1 0.00 0.00 0.00 67 1010.5
20260506190019 19 233 25.7 53.1 0.00 0.00 0.00 68 1010.3
20260506185503 18 236 32.2 53.1 0.00 0.00 0.00 68 1010.4
20260506185008 18 148 32.2 54.7 0.00 0.00 0.00 69 1010.6
20260506184517 18 218 30.6 54.7 0.00 0.00 0.00 69 1010.6
20260506184008 18 212 27.4 51.5 0.00 0.00 0.00 69 1010.8
20260506183508 18 184 30.6 51.5 0.00 0.00 0.00 70 1010.8
20260506183022 18 172 19.3 45.1 0.00 0.00 0.00 70 1011.0
20260506182507 18 237 25.7 56.3 0.00 0.00 0.00 70 1010.9
20260506182009 18 214 32.2 56.3 0.00 0.00 0.00 71 1010.8
20260506181525 18 166 27.4 51.5 0.00 0.00 0.00 71 1010.9
20260506181006 18 198 30.6 51.5 0.00 0.00 0.00 71 1011.0
20260506180506 18 231 33.8 46.7 0.00 0.00 0.00 71 1011.1
20260506180010 18 202 29.0 45.1 0.00 0.00 0.00 71 1011.1
20260506175506 18 258 25.7 53.1 0.00 0.00 0.00 71 1011.1
20260506175006 18 182 25.7 54.7 0.00 0.00 0.00 71 1011.0